• In Sweden
  • List of Countries
  • For 7 days
  • Water Temperature
  • Satellite Maps
  • Weather Map
  • Weather Widgets
  • user-avatar
    Login

    Hourly Weather Wakefield

    Today, 18 November, Saturday

    Time Temperature Precipitation Wind Pressure Humidity
    00:00 +3°C° 0 mm 5 mps 760 mmHg 84%
    01:00 +5°C° 0 mm 5 mps 760 mmHg 84%
    02:00 +4°C° 0 mm 6 mps 759 mmHg 83%
    03:00 +4°C° 0 mm 6 mps 759 mmHg 83%
    04:00 +4°C° 0 mm 6 mps 759 mmHg 82%
    05:00 +5°C° 0 mm 5 mps 759 mmHg 82%
    06:00 +5°C° 0 mm 5 mps 758 mmHg 84%
    07:00 +5°C° 0 mm 5 mps 758 mmHg 83%
    08:00 +6°C° 0 mm 5 mps 758 mmHg 82%
    09:00 +6°C° 0 mm 5 mps 758 mmHg 81%
    10:00 +7°C° 0 mm 5 mps 758 mmHg 76%
    11:00 +7°C° 0 mm 5 mps 758 mmHg 72%
    12:00 +8°C° 0 mm 5 mps 758 mmHg 67%
    13:00 +7°C° 0 mm 4 mps 758 mmHg 68%
    14:00 +7°C° 0 mm 4 mps 758 mmHg 69%
    15:00 +7°C° 0 mm 4 mps 758 mmHg 69%
    16:00 +6°C° 0 mm 4 mps 758 mmHg 71%
    17:00 +5°C° 0 mm 4 mps 758 mmHg 73%
    18:00 +5°C° 0 mm 4 mps 758 mmHg 74%
    19:00 +4°C° 0 mm 4 mps 758 mmHg 74%
    20:00 +4°C° 0 mm 4 mps 758 mmHg 75%
    21:00 +3°C° 0 mm 4 mps 759 mmHg 75%
    22:00 +3°C° 0 mm 4 mps 759 mmHg 75%
    23:00 +3°C° 0 mm 4 mps 759 mmHg 74%

    Tomorrow, 19 November, Sunday

    Time Temperature Precipitation Wind Pressure Humidity
    00:00 +1°C° 0 mm 4 mps 759 mmHg 73%
    01:00 +2°C° 0 mm 3 mps 759 mmHg 73%
    02:00 +2°C° 0 mm 3 mps 759 mmHg 73%
    03:00 +2°C° 0 mm 3 mps 759 mmHg 73%
    04:00 +1°C° 0 mm 3 mps 759 mmHg 74%
    05:00 +1°C° 0 mm 3 mps 759 mmHg 75%
    06:00 +2°C° 0 mm 2 mps 760 mmHg 76%
    07:00 +2°C° 0 mm 2 mps 760 mmHg 75%
    08:00 +3°C° 0 mm 2 mps 760 mmHg 75%
    09:00 +3°C° 0 mm 2 mps 761 mmHg 74%
    10:00 +4°C° 0 mm 2 mps 761 mmHg 70%
    11:00 +5°C° 0 mm 2 mps 761 mmHg 67%
    12:00 +6°C° 0 mm 2 mps 761 mmHg 63%
    13:00 +6°C° 0 mm 2 mps 760 mmHg 65%
    14:00 +6°C° 0 mm 2 mps 760 mmHg 67%
    15:00 +7°C° 0 mm 1 mps 760 mmHg 70%
    16:00 +6°C° 0 mm 2 mps 760 mmHg 73%
    17:00 +5°C° 0 mm 2 mps 760 mmHg 76%
    18:00 +5°C° 0 mm 2 mps 759 mmHg 80%
    19:00 +5°C° 0 mm 2 mps 759 mmHg 81%
    20:00 +5°C° 0 mm 2 mps 759 mmHg 83%
    21:00 +5°C° 0 mm 2 mps 758 mmHg 84%
    22:00 +4°C° 0 mm 3 mps 758 mmHg 86%
    23:00 +5°C° 0 mm 3 mps 757 mmHg 88%

    Day after tomorrow, 20 November, Monday

    Time Temperature Precipitation Wind Pressure Humidity
    00:00 +5°C° 0 mm 4 mps 756 mmHg 90%
    01:00 +6°C° 0.6 mm 5 mps 755 mmHg 90%
    02:00 +7°C° 0.6 mm 5 mps 754 mmHg 91%
    03:00 +8°C° 0.6 mm 6 mps 753 mmHg 91%
    04:00 +9°C° 0.2 mm 6 mps 752 mmHg 90%
    05:00 +9°C° 0.2 mm 6 mps 752 mmHg 90%
    06:00 +10°C° 0.2 mm 7 mps 751 mmHg 89%
    07:00 +10°C° 0 mm 7 mps 751 mmHg 89%
    08:00 +10°C° 0 mm 7 mps 751 mmHg 88%
    09:00 +11°C° 0 mm 7 mps 751 mmHg 88%
    10:00 +11°C° 0.1 mm 7 mps 750 mmHg 85%
    11:00 +12°C° 0.1 mm 8 mps 750 mmHg 82%
    12:00 +12°C° 0.1 mm 8 mps 750 mmHg 80%
    13:00 +12°C° 0.2 mm 8 mps 750 mmHg 80%
    14:00 +12°C° 0.2 mm 8 mps 749 mmHg 80%
    15:00 +12°C° 0.2 mm 8 mps 749 mmHg 80%
    16:00 +11°C° 0 mm 7 mps 750 mmHg 83%
    17:00 +11°C° 0 mm 6 mps 750 mmHg 86%
    18:00 +11°C° 0 mm 4 mps 750 mmHg 89%
    19:00 +11°C° 0.1 mm 4 mps 750 mmHg 90%
    20:00 +11°C° 0.1 mm 4 mps 751 mmHg 91%
    21:00 +10°C° 0.1 mm 3 mps 751 mmHg 93%
    22:00 +10°C° 0.1 mm 3 mps 751 mmHg 93%
    23:00 +10°C° 0.1 mm 3 mps 751 mmHg 94%

    21 November, Tuesday

    Time Temperature Precipitation Wind Pressure Humidity
    00:00 +10°C° 0.1 mm 2 mps 751 mmHg 95%
    01:00 +12°C° 0.8 mm 2 mps 751 mmHg 95%
    02:00 +12°C° 0.8 mm 2 mps 751 mmHg 95%
    03:00 +12°C° 0.8 mm 2 mps 751 mmHg 95%
    04:00 +12°C° 0.1 mm 2 mps 751 mmHg 95%
    05:00 +11°C° 0.1 mm 3 mps 750 mmHg 95%
    06:00 +11°C° 0.1 mm 3 mps 750 mmHg 95%
    07:00 +11°C° 0 mm 4 mps 750 mmHg 93%
    08:00 +11°C° 0 mm 4 mps 749 mmHg 91%
    09:00 +9°C° 0 mm 5 mps 749 mmHg 89%
    10:00 +10°C° 0 mm 5 mps 749 mmHg 86%
    11:00 +10°C° 0 mm 6 mps 748 mmHg 83%
    12:00 +11°C° 0 mm 6 mps 748 mmHg 80%
    13:00 +11°C° 0 mm 6 mps 747 mmHg 81%
    14:00 +11°C° 0 mm 6 mps 747 mmHg 82%
    15:00 +11°C° 0 mm 6 mps 747 mmHg 82%
    16:00 +11°C° 0.1 mm 6 mps 746 mmHg 84%
    17:00 +11°C° 0.1 mm 6 mps 746 mmHg 85%
    18:00 +11°C° 0.1 mm 6 mps 745 mmHg 86%
    19:00 +11°C° 0.4 mm 6 mps 745 mmHg 87%
    20:00 +13°C° 0.4 mm 6 mps 745 mmHg 88%
    21:00 +13°C° 0.4 mm 6 mps 745 mmHg 88%
    22:00 +13°C° 0.2 mm 6 mps 745 mmHg 89%
    23:00 +13°C° 0.2 mm 6 mps 745 mmHg 89%

    22 November, Wednesday

    Time Temperature Precipitation Wind Pressure Humidity
    00:00 +13°C° 0.2 mm 6 mps 745 mmHg 90%
    01:00 +13°C° 0.1 mm 6 mps 744 mmHg 87%
    02:00 +12°C° 0.1 mm 7 mps 744 mmHg 85%
    03:00 +12°C° 0.1 mm 7 mps 744 mmHg 83%
    04:00 +12°C° 0 mm 7 mps 744 mmHg 83%
    05:00 +12°C° 0 mm 7 mps 743 mmHg 83%
    06:00 +12°C° 0 mm 7 mps 743 mmHg 83%
    07:00 +12°C° 0 mm 7 mps 743 mmHg 83%
    08:00 +12°C° 0 mm 7 mps 743 mmHg 83%
    09:00 +11°C° 0 mm 7 mps 743 mmHg 83%
    10:00 +12°C° 0 mm 7 mps 743 mmHg 82%
    11:00 +12°C° 0 mm 7 mps 743 mmHg 80%
    12:00 +13°C° 0 mm 8 mps 743 mmHg 78%
    13:00 +14°C° 0 mm 7 mps 742 mmHg 76%
    14:00 +14°C° 0 mm 7 mps 742 mmHg 75%
    15:00 +14°C° 0 mm 6 mps 742 mmHg 73%
    16:00 +13°C° 0 mm 6 mps 741 mmHg 71%
    17:00 +13°C° 0 mm 6 mps 741 mmHg 70%
    18:00 +11°C° 0 mm 7 mps 740 mmHg 68%
    19:00 +11°C° 0 mm 7 mps 740 mmHg 67%
    20:00 +11°C° 0 mm 7 mps 739 mmHg 65%
    21:00 +10°C° 0 mm 7 mps 739 mmHg 64%
    22:00 +10°C° 0 mm 7 mps 738 mmHg 64%
    23:00 +10°C° 0 mm 8 mps 737 mmHg 65%

    23 November, Thursday

    Time Temperature Precipitation Wind Pressure Humidity
    00:00 +10°C° 0 mm 8 mps 736 mmHg 65%
    01:00 +10°C° 0.1 mm 9 mps 734 mmHg 67%
    02:00 +11°C° 0.1 mm 10 mps 732 mmHg 70%
    03:00 +12°C° 0.1 mm 11 mps 731 mmHg 72%
    04:00 +12°C° 0.4 mm 11 mps 731 mmHg 73%
    05:00 +12°C° 0.4 mm 11 mps 732 mmHg 73%
    06:00 +12°C° 0.4 mm 10 mps 732 mmHg 74%
    07:00 +12°C° 0.1 mm 10 mps 734 mmHg 73%
    08:00 +11°C° 0.1 mm 10 mps 735 mmHg 73%
    09:00 +11°C° 0.1 mm 10 mps 737 mmHg 72%
    10:00 +11°C° 0 mm 9 mps 738 mmHg 71%
    11:00 +11°C° 0 mm 9 mps 739 mmHg 71%
    12:00 +11°C° 0 mm 9 mps 741 mmHg 70%
    13:00 +11°C° 0 mm 8 mps 741 mmHg 70%
    14:00 +11°C° 0 mm 7 mps 742 mmHg 70%
    15:00 +11°C° 0 mm 7 mps 742 mmHg 70%
    16:00 +11°C° 0 mm 7 mps 742 mmHg 74%
    17:00 +11°C° 0 mm 6 mps 743 mmHg 79%
    18:00 +11°C° 0 mm 6 mps 743 mmHg 83%
    19:00 +13°C° 0.1 mm 6 mps 743 mmHg 82%
    20:00 +13°C° 0.1 mm 6 mps 743 mmHg 82%
    21:00 +13°C° 0.1 mm 6 mps 744 mmHg 82%
    22:00 +13°C° 0 mm 6 mps 744 mmHg 83%
    23:00 +13°C° 0 mm 6 mps 744 mmHg 84%
    Show more